Regional Weather Roundup
Issued by NWS

Home | Current Version | Previous Version | Text Only | Print | Product List | Glossary Off
Versions: 1 2 3 4 5 6 7 8 9 10 11 12 13 14 15 16 17 18 19 20 21 22 23 24 25 26 27 28 29 30 31 32 33 34 35 36 37 38 39 40 41 42 43 44 45 46 47 48 49 50

000
ASUS43 KDTX 211010
RWRMI
MICHIGAN HOURLY REGIONAL WEATHER ROUNDUP
NATIONAL WEATHER SERVICE DETROIT/PONTIAC MI
500 AM EST FRI NOV 21 2014

NOTE: "FAIR" INDICATES FEW OR NO CLOUDS BELOW 12,000 FEET WITH NO
SIGNIFICANT WEATHER AND/OR OBSTRUCTION TO VISIBILITY.

MIZ047>049-052>055-059>063-066>070-074>076-081>083-211100-
SOUTHEAST LOWER MICHIGAN

CITY           SKY/WX    TMP DP  RH WIND       PRES   REMARKS
ADRIAN         CLOUDY    18  10  71 NW5       30.33R
ALMA           CLEAR      7   6  94 SW3       30.31R
ANN ARBOR      MOCLDY    12   6  77 W6        30.31R
BAD AXE        CLEAR     12  10  89 W7        30.26R
DETROIT CITY   CLEAR     16   8  71 W5        30.31R
DETROIT        PTCLDY    15   9  76 W8        30.32R
FLINT          CLEAR      6   2  83 W7        30.30R
GROSSE ILE     CLEAR     18  10  73 W8        30.31R
HILLSDALE      LGT SNOW  16  14  89 W5        30.29R
HOWELL         CLEAR      7   6  92 W7        30.29R

CITY           SKY/WX    TMP DP  RH WIND       PRES   REMARKS
JACKSON        CLOUDY    16  10  77 W6        30.30R
LAMBERTVILLE   CLOUDY    21  14  73 W3        30.34R
LANSING        PTCLDY     8   4  83 W3        30.32R
LAPEER         NOT AVBL
MASON          PTCLDY    12   8  85 W6        30.30R
MONROE         CLOUDY    18  12  79 W5        30.32R
MT. CLEMENS    CLEAR     13   9  85 W9        30.27R
PONTIAC        CLEAR      9   5  84 W9        30.27R
PORT HOPE        N/A     21  11  65 W12G22    30.23R
PORT HURON     CLEAR     10   7  85 W5        30.28R
TRI CITIES     CLEAR     11   7  84 W9        30.31R
YPSILANTI      FLURRIES  17   8  67 W9        30.32R
$$
MIZ043>046-050>051-056>058-064>065-071>073-077>080-211100-
SOUTHWEST LOWER MICHIGAN

CITY           SKY/WX    TMP DP  RH WIND       PRES   REMARKS
BATTLE CREEK   CLOUDY    18  12  77 NW3       30.31R
BENTON HARBOR  CLOUDY    22  11  62 W8        30.36R
BIG RAPIDS     CLOUDY     6   3  88 CALM      30.27R
COLDWATER      LGT SNOW  20  16  84 W3        30.32R
HOLLAND        CLOUDY    20  14  77 SE5       30.33R
GRAND RAPIDS   CLOUDY    18   9  68 W5        30.32R
KALAMAZOO      CLOUDY    19  15  84 NW3       30.32R
MARSHALL       FLURRIES  16  12  85 W5        30.31R
MUSKEGON       CLOUDY    20   9  62 SE6       30.33R
$$
MIZ016>042-211100-
NORTHERN LOWER MICHIGAN

CITY           SKY/WX    TMP DP  RH WIND       PRES   REMARKS
BEAVER ISLAND  CLOUDY    21  14  73 W9        30.22R
BELLAIRE       LGT SNOW  20  14  77 CALM      30.25R
CADILLAC       CLOUDY    11   6  81 CALM      30.21R
CHARLEVOIX     CLOUDY    21  10  63 NW10      30.25R
FRANKFORT      CLOUDY    20  12  69 NW9       30.27R
GAYLORD        CLOUDY    12   9  87 W5        30.17R
GRAYLING       CLOUDY    10   8  89 SW7       30.21R
HARBOR SPRINGS CLOUDY    19   8  61 W8        30.21R
HOUGHTON LAKE  PTCLDY    10   7  87 W5        30.23R
MANISTEE       CLOUDY    21   9  58 NW13      30.29R
OSCODA         CLEAR      8   5  89 W6        30.24R
PELLSTON       CLOUDY    17  10  74 SW6       30.21R
TRAVERSE CITY  LGT SNOW  17  12  80 SW3       30.25R
$$
MIZ007>008-015-211100-
EASTERN UPPER MICHIGAN

CITY           SKY/WX    TMP DP  RH WIND       PRES   REMARKS
KINROSS        CLOUDY     5   3  92 SW6       30.17R
MACKINAC ISLAN MOCLDY    19  14  83 W13       30.19R
NEWBERRY       CLOUDY     9   6  90 W9        30.18R
S. S. MARIE    LGT SNOW  13  10  88 E3        30.18R FOG
$$
MIZ004>006-011>014-085-211100-
CENTRAL UPPER MICHIGAN

CITY           SKY/WX    TMP DP  RH WIND       PRES   REMARKS
MANISTIQUE     CLOUDY     9   4  79 W6        30.23R
ESCANABA       PTCLDY     5   0  78 W9        30.26R
MENOMINEE      CLEAR      7   0  72 W5        30.29R
SAWYER-GWINN   PTCLDY     3  -1  85 CALM      30.19R
$$
MIZ001>003-009>011-084-211100-
WESTERN UPPER MICHIGAN

CITY           SKY/WX    TMP DP  RH WIND       PRES   REMARKS
IRON MOUNTAIN  PTCLDY     3  -3  76 CALM      30.23R
HOUGHTON       LGT SNOW  15  11  83 SW7       30.14R FOG
COPPER HARBOR    N/A     15  10  80 SW6       30.17R
IRONWOOD       PTCLDY     5  -4  66 SW8       30.18S
$$

ABBREVIATIONS USED IN REMARKS
   TC - TEMPERATURE IN CELSIUS
  WCI - WIND CHILL INDEX
   HX - HEAT INDEX
  VSB - VISIBILITY



USA.gov is the U.S. government's official web portal to all federal, state and local government web resources and services.